{"data":{"norad_id":59023,"intl_designator":"2024-038A","name":"STARLINK-30996","alt_names":[],"object_type":"PAYLOAD","status":"ACTIVE","operator":null,"country":"US","launch_date":"2024-02-25","launch_site_code":"AFETR","launch_vehicle":null,"mission":null,"orbit_class":"UNKNOWN","rcs_meters":null,"size_class":null,"mass_kg":null,"dimensions":null,"purposes":["comms"],"wikipedia_slug":null,"has_3d_model":false,"image_url":null,"decayed_at":null,"tle_current":{"epoch":"2026-09-20T13:54:37.969632Z","epoch_age_seconds":148888,"freshness":"FRESH","line1":"1 59023U 24038A   26263.57960613 -.00000057  00000+0  74669-5 0  9991","line2":"2 59023  43.0040   6.4234 0001319 275.4293  84.6408 15.27577375145938","mean_motion":15.27577375,"eccentricity":0.0001319,"inclination_deg":43.004,"raan_deg":6.4234,"arg_perigee_deg":275.4293,"mean_anomaly_deg":84.6408,"bstar":7.4669e-6,"rev_number":14593,"period_min":94.266910702314,"perigee_km":482.15196476242,"apogee_km":483.96194772808,"semimajor_km":6861.1939562452,"source":"CELESTRAK","updated_at":"2026-09-21T09:00:34.027916Z"}}}